RH
41 46 55 68 82 93 102 104 103 101 101 100 101 101 100 100 100 100 100 100 100 100 100 100 100 100 100 101 101 100 101 101 101 101 101 100 101 101 102 100 94 88 88 93 96 94 92 94 97 98 102 106 107 106 105 102 97 95 94 94 92 89 87
41 43 47 53 61 71 84 95 100 102 101 100 100 101 100 100 100 100 100 100 100 100 101 100 100 100 100 101 101 100 100 101 101 101 101 100 100 101 102 101 98 93 91 94 100 102 100 99 102 105 105 107 109 108 103 98 94 91 89 88 87 85 85
46 47 48 50 54 58 64 73 82 91 97 101 103 103 101 100 100 99 100 102 102 101 101 101 100 100 100 100 100 100 100 101 101 101 101 101 101 100 100 101 101 97 95 96 99 103 102 99 100 102 101 101 102 101 97 96 95 92 90 91 91 90 90
52 53 54 56 57 59 60 63 66 72 79 88 97 102 103 103 102 100 101 102 101 101 101 101 100 100 100 100 100 100 101 101 100 101 102 101 101 101 100 100 101 98 93 92 94 98 99 96 95 96 97 98 99 100 101 102 102 100 100 100 100 100 98
51 53 57 61 64 66 69 70 71 71 71 74 79 85 91 95 99 102 103 102 102 102 101 100 101 102 101 100 101 101 102 102 101 101 102 101 100 102 102 101 101 98 94 91 94 98 99 97 97 98 100 102 102 103 105 105 104 103 104 103 104 105 103
52 54 57 62 67 72 76 78 80 82 82 82 80 81 81 83 87 93 96 99 104 107 104 102 102 103 101 100 102 103 102 102 103 102 102 103 101 101 104 105 102 100 100 99 98 100 102 102 101 102 103 102 102 103 103 102 103 105 104 105 106 107 104
51 53 56 60 63 68 73 77 81 86 90 92 93 94 93 90 89 90 90 92 96 100 101 102 103 102 101 102 103 103 101 102 104 102 101 102 100 100 104 105 101 100 104 105 102 101 102 103 103 105 105 104 105 106 104 105 108 109 107 106 106 105 103
49 49 50 52 55 58 62 66 72 78 83 87 91 94 96 96 95 94 94 93 92 92 94 97 99 100 102 103 102 101 100 101 102 102 101 102 102 103 105 104 102 103 106 107 106 105 105 106 107 108 108 109 110 109 108 108 109 108 107 106 106 105 103
51 51 51 52 52 54 55 57 60 63 67 71 73 77 79 81 82 82 83 84 83 82 82 83 84 85 87 87 85 84 83 82 82 81 80 81 81 82 81 80 80 81 81 81 80 81 81 82 83 85 87 89 90 90 92 92 91 91 92 93 95 94 94
57 57 58 58 58 58 58 58 60 61 62 63 64 66 68 69 71 72 74 76 78 79 78 78 77 77 77 76 75 73 71 70 69 66 65 65 65 64 63 62 62 61 61 61 59 59 60 59 58 61 64 65 64 65 67 67 66 67 68 68 70 73 76
54 54 56 59 61 62 63 63 63 64 65 66 66 67 68 70 71 73 74 76 78 80 81 81 80 80 80 79 77 76 75 74 73 71 70 69 68 68 67 66 66 65 64 62 59 58 57 55 55 59 62 62 59 58 57 56 54 52 52 53 53 57 62
46 47 49 52 56 59 62 63 64 65 66 67 68 70 70 73 76 78 80 79 79 78 78 78 78 78 79 78 77 77 76 76 76 75 75 74 74 75 74 74 73 72 71 68 64 60 56 55 55 57 59 60 58 55 52 49 48 46 46 46 46 48 53
43 44 47 50 53 56 58 60 62 63 64 65 68 70 72 75 80 84 87 88 87 86 84 82 81 80 79 79 78 77 77 77 78 77 77 76 77 78 79 79 78 77 76 74 69 64 60 59 59 57 56 56 54 49 46 44 44 44 43 42 40 42 45
47 49 50 52 55 58 60 61 62 64 65 65 66 66 67 71 76 80 83 86 88 90 90 90 88 86 85 84 83 81 80 79 78 78 77 77 77 78 79 80 80 79 77 73 67 62 60 61 61 57 55 54 51 47 44 44 44 43 41 39 38 38 39
53 56 57 58 59 61 63 63 62 62 63 63 62 60 59 61 64 65 67 69 71 73 75 78 79 80 81 81 81 81 79 78 76 75 75 76 76 78 80 80 79 76 71 65 59 55 54 54 54 52 51 50 48 46 45 45 44 43 42 41 40 39 39
55 59 60 60 60 60 62 61 58 56 57 57 56 54 55 57 58 58 58 58 57 57 58 59 61 63 65 67 69 70 71 71 71 71 71 70 70 69 69 68 67 64 59 55 52 49 48 48 48 48 47 46 46 45 45 45 44 44 44 44 43 43 42
55 58 59 60 59 57 57 55 51 48 49 49 48 48 48 50 51 52 52 53 53 53 53 54 54 54 55 56 58 59 60 60 60 60 61 60 60 59 58 57 57 55 53 51 49 48 46 46 46 46 46 46 46 46 46 46 46 47 49 48 47 47 49
55 58 58 57 56 54 52 51 48 46 46 46 44 43 43 45 47 48 48 49 50 51 51 51 51 49 49 49 49 50 50 49 48 48 48 49 50 50 52 53 52 50 48 46 45 45 44 44 45 46 46 46 47 47 48 49 51 53 53 52 53 55 56
54 55 54 51 48 47 46 46 46 44 43 43 42 40 40 42 45 47 47 46 46 46 46 44 43 42 41 42 43 43 44 43 42 42 42 43 43 45 48 51 50 48 46 45 44 43 43 43 43 44 44 45 46 46 46 47 51 54 54 52 53 55 55
54 55 54 51 48 46 44 43 42 41 40 40 40 40 40 41 43 44 44 44 44 45 46 45 43 42 41 40 40 40 40 39 39 38 38 39 40 41 43 45 45 44 44 44 43 43 42 41 40 40 40 41 41 42 41 40 43 47 48 46 47 48 47
54 55 56 55 52 49 47 44 44 46 46 46 46 46 46 47 47 47 46 48 49 50 50 49 47 46 44 44 44 44 45 45 44 44 45 46 47 48 49 49 50 51 52 52 52 52 51 51 50 50 49 48 47 47 47 45 45 47 48 48 48 48 47
52 54 57 57 56 54 53 52 53 54 55 54 53 52 51 52 52 53 53 55 57 59 59 59 59 60 60 59 60 60 60 59 59 58 58 58 58 57 57 57 58 58 60 61 62 62 62 62 63 63 62 61 58 57 57 56 54 55 56 57 58 59 59
54 56 58 59 57 56 55 57 59 60 61 61 62 62 64 65 66 67 67 67 69 70 69 69 69 68 68 67 66 64 62 61 59 58 57 56 55 55 54 54 54 54 55 55 56 58 59 60 62 63 62 61 59 56 55 54 54 55 58 60 62 65 67
52 54 57 60 62 63 65 66 69 71 72 72 73 74 75 73 71 69 67 66 65 66 65 65 64 63 61 59 57 55 53 51 50 49 47 46 45 44 44 44 44 45 45 45 46 48 51 53 55 56 56 55 53 51 48 47 48 49 51 54 58 61 63
62 64 67 70 73 75 76 76 76 76 76 75 74 74 72 70 67 64 61 61 61 61 60 59 59 58 56 53 50 48 46 45 44 41 39 37 36 34 34 33 33 32 32 33 34 35 37 40 42 43 45 44 43 42 42 41 41 41 42 45 48 52 55
71 72 73 75 78 80 81 81 80 79 77 75 74 73 70 66 63 60 58 57 56 54 52 50 49 49 47 45 42 39 38 38 37 34 31 29 26 24 23 22 21 21 20 20 21 21 22 23 26 27 28 28 29 30 30 30 30 30 30 32 35 39 43
74 76 78 80 82 84 84 84 84 82 81 78 75 71 66 61 57 54 52 49 46 42 38 36 34 33 31 29 27 26 25 25 24 23 21 20 18 16 15 14 13 13 13 13 13 14 14 14 15 16 16 17 17 18 18 19 19 19 20 21 22 23 27
83 84 83 83 84 85 86 87 87 85 82 79 74 67 60 53 48 42 37 33 28 25 22 21 19 18 17 16 16 15 15 15 15 15 15 14 14 13 12 12 12 11 11 11 11 11 12 12 12 12 12 13 13 13 13 13 14 14 14 14 14 14 16
88 86 84 83 83 83 85 87 87 82 75 69 60 51 43 36 30 24 20 17 15 14 14 13 12 12 12 12 12 12 12 12 12 12 12 12 12 12 12 11 11 11 11 11 11 11 11 11 11 11 11 11 11 12 12 12 12 12 12 12 12 12 12
86 85 83 81 80 78 77 78 76 69 60 49 37 29 23 20 17 15 14 13 12 11 11 11 11 11 11 11 11 11 11 11 11 11 11 11 11 11 11 11 11 10 10 10 10 10 10 10 10 11 11 11 11 11 11 11 11 11 11 11 12 12 11
81 78 74 72 72 72 69 64 57 48 38 28 21 18 16 15 15 14 13 12 12 12 12 12 12 12 12 11 11 11 11 11 11 11 11 12 11 11 11 11 11 11 11 11 10 10 10 10 10 10 10 10 10 10 10 10 10 10 11 11 11 11 11
77 71 66 62 59 56 50 42 34 26 21 18 16 16 16 16 16 15 14 13 13 12 13 13 13 13 13 12 12 12 12 12 12 12 12 12 12 12 11 12 12 12 12 12 11 11 10 10 10 9 9 9 9 9 9 9 9 10 10 10 10 10 11
67 60 53 46 38 31 26 23 20 18 17 16 17 17 18 18 17 16 15 14 14 14 14 14 14 13 13 13 12 12 12 12 11 12 12 11 11 12 11 11 11 11 11 12 11 11 11 10 10 10 9 9 9 9 9 9 9 9 9 10 10 10 10
46 37 31 25 20 18 17 17 18 17 17 18 18 18 18 18 17 16 15 14 14 14 14 13 13 13 12 12 13 12 12 12 11 11 11 11 11 11 10 10 10 10 11 11 11 11 11 10 10 10 10 10 10 10 9 9 9 9 9 9 9 10 10
25 19 16 15 16 17 18 18 18 18 18 18 18 18 18 17 16 15 14 14 14 15 15 15 14 14 14 13 13 13 12 12 12 11 11 11 11 11 11 10 10 11 11 11 11 10 10 11 10 10 10 10 10 10 10 10 10 9 9 10 10 10 10
17 16 15 15 16 18 19 19 18 17 17 17 18 18 18 18 18 17 17 16 16 17 17 17 16 15 15 14 13 13 12 12 12 11 11 11 11 11 11 10 11 11 11 11 11 10 10 10 10 10 10 10 10 10 10 10 10 10 10 10 10 10 10
Wind_Speed
98 99 100 103 106 109 112 115 116 117 118 118 119 119 119 119 119 118 118 118 118 119 119 119 119 119 120 120 121 121 122 123 124 124 125 126 126 127 128 129 129 128 124 122 122 122 122 122 121 121 121 121 121 121 121 121 120 119 118 118 118 117 117
99 100 101 102 103 105 108 111 114 116 118 119 120 120 121 121 121 120 120 120 120 121 121 121 121 121 122 123 123 123 124 125 126 127 127 128 129 129 130 131 131 130 128 125 125 125 124 124 123 122 121 122 122 122 122 121 120 120 119 119 118 118 118
101 102 102 103 104 104 106 107 110 112 115 117 118 120 121 121 122 122 122 122 122 122 123 123 123 123 124 125 125 125 126 127 128 129 129 130 131 131 132 133 133 132 130 127 126 126 125 124 124 123 122 122 122 122 122 122 121 121 121 120 119 119 119
103 103 104 105 105 106 106 107 108 109 111 112 114 116 118 119 120 121 122 122 123 123 124 124 124 125 126 126 127 127 127 128 129 130 130 131 131 132 132 133 133 132 131 129 126 125 125 125 124 123 123 122 122 122 122 122 122 122 122 121 121 121 120
103 104 105 106 107 107 108 108 109 109 109 110 111 112 114 115 117 118 119 120 121 122 123 124 124 125 126 127 127 127 128 129 129 130 131 131 131 132 132 133 133 132 131 130 128 126 126 126 126 125 124 124 124 123 123 123 123 123 123 123 123 122 122
103 104 105 106 107 108 109 109 110 110 110 111 111 111 111 112 113 114 115 116 118 119 120 121 122 123 124 125 126 126 127 128 129 130 130 131 131 132 132 133 133 133 132 131 129 128 128 128 128 127 126 126 126 126 125 125 124 125 125 124 124 124 124
102 103 105 106 108 109 110 110 111 112 112 112 112 112 112 112 113 113 114 114 115 116 118 119 120 121 122 123 124 125 126 127 128 129 130 130 131 132 132 132 132 133 133 132 131 130 129 129 129 129 128 128 128 127 126 125 125 125 125 125 125 125 125
99 100 102 103 105 107 108 110 111 112 112 113 113 113 114 114 114 114 114 115 115 116 117 117 118 119 120 122 123 124 125 126 127 128 128 129 130 131 131 132 132 132 132 132 131 130 130 130 129 129 128 128 127 126 126 126 126 125 125 125 125 125 125
98 99 99 100 101 103 104 106 107 109 110 111 112 112 113 113 114 114 114 115 115 115 116 116 116 117 118 119 120 121 122 122 123 124 124 125 126 127 127 128 128 128 128 128 127 126 126 126 126 125 125 125 124 124 124 124 124 123 123 124 124 124 124
99 99 100 101 101 102 102 103 104 105 106 107 108 109 110 110 111 112 113 113 114 115 115 115 116 116 116 117 117 118 119 119 120 120 120 120 121 122 122 122 122 122 122 122 122 121 121 121 120 120 121 122 121 121 121 122 121 121 121 121 121 121 121
99 99 100 101 102 102 103 103 104 104 105 105 106 106 107 108 109 110 111 112 113 114 114 115 116 116 117 117 118 118 118 119 119 119 119 119 119 119 119 119 119 119 120 120 119 119 118 118 117 118 120 121 121 121 121 120 120 119 119 119 118 118 118
98 99 100 100 101 102 102 103 103 104 104 105 106 106 106 107 108 109 110 111 112 113 114 115 115 116 117 117 118 118 118 119 119 119 119 119 120 120 120 120 120 120 121 121 121 120 119 118 118 118 120 121 121 121 120 120 119 118 118 118 117 116 116
97 98 98 99 99 100 100 101 101 102 103 104 104 105 106 106 107 109 110 111 112 113 114 115 116 116 117 117 118 118 119 119 120 120 120 121 121 121 122 122 123 123 123 124 124 122 121 121 121 121 121 122 122 122 120 119 119 118 118 117 116 115 115
96 97 97 97 98 98 98 99 99 100 100 101 102 103 104 104 105 107 108 110 111 112 113 115 115 116 117 118 119 119 120 121 121 121 121 122 122 122 123 124 124 125 125 126 125 124 123 123 124 124 124 124 124 123 121 120 120 119 118 117 115 115 114
95 95 96 96 96 96 97 97 98 98 99 99 100 101 101 101 102 103 105 106 107 108 109 111 112 113 115 116 117 118 119 120 121 121 121 122 122 123 123 124 125 126 127 127 126 125 124 123 124 125 124 124 124 123 122 121 120 119 118 116 115 114 113
93 93 94 94 94 95 95 96 97 96 97 98 98 98 98 99 100 101 102 103 103 104 105 106 108 109 110 111 113 114 116 117 118 119 120 120 121 122 122 123 124 125 126 126 125 124 123 122 122 123 123 122 121 121 120 120 119 117 116 115 114 112 111
90 91 91 92 92 92 93 94 95 95 95 96 96 96 96 96 97 98 99 100 101 102 103 105 106 107 107 108 110 111 113 114 115 116 117 118 119 120 120 121 122 123 124 124 124 123 122 121 121 121 120 120 119 119 118 118 117 115 115 115 113 111 110
89 89 90 90 90 91 91 92 93 93 94 94 94 94 94 94 95 97 98 99 100 101 102 103 104 105 106 107 108 109 111 112 113 114 115 116 116 117 118 119 121 121 121 121 121 121 120 120 119 119 118 118 118 118 117 117 115 115 115 114 112 110 110
89 89 90 90 90 90 91 91 92 92 92 93 94 94 94 95 95 96 98 98 99 101 102 103 104 105 105 106 107 108 109 111 112 112 113 114 114 114 115 117 119 119 119 119 119 119 118 118 117 117 117 116 116 117 116 115 114 114 115 113 111 110 110
89 89 90 90 90 91 91 91 91 92 93 94 94 95 95 96 96 97 98 99 100 102 103 105 106 106 107 107 108 108 109 110 111 111 112 112 112 113 113 115 116 116 116 117 117 117 117 116 115 115 114 114 113 114 114 113 111 111 112 111 110 109 108
88 88 89 90 91 91 92 92 92 93 94 95 95 96 96 97 98 99 99 100 102 103 105 106 107 108 109 109 109 110 110 110 111 111 111 111 111 111 111 112 112 113 113 114 114 114 114 114 113 113 112 112 111 111 112 111 110 108 108 107 107 106 105
86 87 87 89 90 91 92 92 92 93 94 95 96 96 97 97 98 99 100 100 101 103 104 105 107 108 109 110 110 111 111 111 111 112 112 111 111 111 111 111 111 111 111 112 112 112 112 112 112 112 112 112 112 111 111 110 109 107 106 104 104 103 102
85 85 86 87 89 90 91 91 92 92 93 94 95 96 97 98 98 99 100 100 101 102 104 105 107 108 110 111 112 112 113 113 113 113 113 112 112 112 112 112 111 111 111 111 111 111 111 111 112 112 113 113 114 113 112 111 109 107 105 104 103 102 102
83 83 84 85 86 88 90 91 92 93 94 95 96 97 98 99 100 101 101 102 103 104 105 107 108 109 111 112 112 113 113 112 112 112 112 112 112 112 111 111 111 110 110 110 110 109 109 110 111 112 113 113 114 114 113 111 109 107 105 104 104 103 103
81 82 83 84 86 87 90 92 93 95 96 97 98 99 101 101 102 103 103 104 105 106 107 108 109 111 112 112 113 113 112 112 113 112 112 112 112 112 111 111 110 109 109 108 108 107 107 108 109 110 111 112 112 112 112 110 109 107 105 104 104 104 104
81 83 84 85 86 88 90 93 95 97 98 99 100 102 103 104 105 105 106 106 107 108 108 109 110 111 112 112 112 112 112 112 113 113 113 112 112 112 111 110 109 108 107 106 106 105 105 105 107 107 108 108 109 109 109 108 108 106 105 103 103 102 102
82 83 84 85 87 89 92 94 97 99 101 102 103 104 105 106 106 107 107 107 108 108 108 108 109 110 110 110 110 110 111 111 111 112 111 111 111 111 110 109 108 106 105 105 104 103 103 104 104 105 105 105 105 105 105 105 105 104 103 102 102 100 99
84 85 86 87 89 91 94 96 99 101 103 104 106 107 107 107 107 107 107 106 106 106 106 107 107 107 107 107 107 107 107 107 107 107 108 108 108 109 108 108 107 105 104 103 102 101 101 102 102 102 102 102 102 101 101 101 101 101 101 101 100 97 96
86 87 89 90 92 94 96 98 101 103 104 105 106 106 106 106 105 105 104 104 103 102 102 103 103 103 103 102 102 102 102 102 102 102 103 103 103 104 104 104 104 103 102 101 100 99 99 100 100 99 99 99 98 98 98 99 99 98 98 98 97 95 94
88 90 91 92 94 96 97 99 101 103 105 105 105 104 103 103 103 102 101 101 99 99 99 99 99 99 99 98 98 97 97 97 97 97 97 98 98 98 98 99 99 98 98 97 96 96 96 96 96 96 96 96 96 96 96 96 96 95 95 95 94 93 93
91 92 93 93 95 97 98 100 101 103 103 103 103 101 101 100 99 99 98 97 96 95 95 95 95 95 95 94 93 93 92 92 92 92 92 92 93 93 92 92 93 93 93 92 92 92 92 92 92 92 92 92 92 92 93 92 92 93 93 92 92 91 91
94 94 94 94 95 96 98 99 100 100 100 99 97 96 96 95 95 95 94 92 91 91 91 91 91 91 91 91 90 89 88 88 87 88 88 88 88 89 88 87 87 88 88 88 88 88 88 88 88 87 87 87 88 88 88 89 89 89 89 89 89 89 89
95 95 95 94 94 94 94 95 95 95 93 92 91 90 90 90 91 91 90 88 87 87 87 87 88 88 88 87 87 86 85 85 84 84 84 84 85 85 85 84 83 83 84 84 84 84 84 85 84 84 83 83 84 84 84 85 85 86 86 86 86 86 86
95 93 92 92 91 89 89 89 89 88 87 86 86 86 86 87 87 87 86 84 83 83 83 84 84 84 84 83 83 82 82 82 81 81 81 81 81 81 81 80 80 79 80 80 80 80 81 81 81 81 80 80 80 80 80 81 81 81 82 82 82 83 83
94 91 88 86 85 84 84 84 84 84 83 82 82 82 83 83 83 83 82 81 79 78 79 79 80 80 79 79 78 78 77 77 77 77 77 76 76 76 76 76 75 75 75 75 76 76 76 77 77 77 77 77 77 77 77 78 78 78 78 78 78 79 79
92 89 85 82 80 80 81 81 81 80 79 78 78 78 78 79 79 79 78 76 75 74 74 74 74 74 74 74 74 73 73 73 72 72 72 72 72 72 71 71 70 70 71 71 71 71 72 72 73 73 73 73 74 74 74 74 74 74 74 74 75 75 76
Wind_Direction
268 266 265 263 262 262 262 262 262 262 263 263 263 263 264 264 264 264 265 265 265 266 266 266 266 266 266 266 266 266 267 267 267 268 269 269 270 270 271 272 272 273 273 273 273 273 273 273 273 273 273 273 273 273 273 273 273 273 273 272 272 272 272
269 268 267 265 264 263 262 261 261 261 262 262 262 262 263 263 263 264 264 264 264 265 265 266 266 266 266 266 267 267 267 267 268 268 269 269 269 270 270 271 271 272 272 272 272 272 272 272 272 272 272 272 272 272 273 273 273 273 273 272 272 272 273
269 269 268 268 267 265 264 263 262 262 261 261 261 262 262 262 263 263 263 263 264 264 264 265 265 266 266 266 267 267 267 268 268 268 269 269 269 270 270 270 271 271 271 271 271 271 272 272 272 272 271 272 272 272 272 273 273 273 273 273 273 273 273
269 269 269 269 268 268 267 266 265 264 263 262 262 262 262 262 262 262 263 263 263 263 264 264 265 265 266 266 266 267 267 267 268 268 268 269 269 269 270 270 271 271 271 271 271 271 272 272 272 272 272 272 272 272 272 272 273 273 273 273 273 273 273
268 268 268 269 269 269 269 268 268 267 267 266 265 264 263 263 263 262 263 263 263 263 264 264 264 265 265 265 266 266 266 267 267 267 268 268 269 269 269 270 271 271 272 272 272 272 272 272 272 272 272 272 271 271 271 272 272 272 272 272 272 272 271
268 268 268 268 268 268 268 268 268 268 268 268 267 267 266 265 264 264 264 263 263 263 264 264 264 265 265 265 266 266 266 266 266 267 267 268 268 269 269 270 270 271 271 271 272 271 271 272 272 271 271 271 271 271 271 271 271 271 271 271 270 270 270
267 267 267 267 267 267 267 267 267 267 267 267 268 268 268 267 267 266 266 265 265 264 264 264 264 264 264 265 265 265 265 266 266 267 267 267 268 268 269 269 270 270 270 271 271 271 271 271 271 271 271 271 271 270 270 270 270 270 270 270 270 270 270
269 268 267 267 266 266 266 266 266 266 266 266 266 267 267 267 267 267 267 267 266 266 265 265 265 264 264 264 264 264 264 265 265 265 266 266 267 267 268 268 268 269 269 270 270 270 270 270 270 270 270 270 270 270 270 270 270 269 270 270 270 270 270
273 272 271 270 269 268 267 267 267 267 267 267 267 267 267 267 267 268 268 268 267 267 267 267 266 266 266 265 265 265 265 265 265 265 266 266 266 267 267 267 268 268 268 269 269 269 269 269 269 269 269 269 269 269 269 269 269 269 269 269 269 269 270
274 273 273 272 272 271 270 269 269 269 268 268 268 268 268 269 269 269 269 269 270 270 270 270 269 269 269 269 268 268 268 268 268 268 268 268 268 268 269 269 269 269 269 269 269 269 269 269 269 269 269 269 269 269 269 269 269 269 269 269 269 269 270
273 273 273 272 272 272 271 271 271 270 270 270 269 269 269 269 270 270 270 270 270 270 271 271 271 271 271 271 271 271 271 271 271 271 271 271 271 271 271 271 271 271 271 271 270 270 270 270 270 270 270 270 270 270 270 270 269 269 269 269 269 269 270
273 273 273 272 272 272 271 271 271 271 271 270 270 270 270 270 270 270 270 270 271 271 271 271 271 271 271 271 272 272 272 272 272 272 272 272 272 273 273 273 273 273 273 273 273 273 272 273 272 272 272 272 272 271 271 271 271 271 271 271 271 271 270
274 273 273 273 272 272 272 272 271 271 271 270 270 270 270 270 270 270 270 270 270 270 270 271 271 271 271 271 271 271 271 271 272 272 272 272 273 273 273 273 274 274 274 274 274 274 274 274 274 274 273 273 273 273 273 273 273 273 272 272 272 272 271
275 274 274 274 273 273 272 272 271 271 270 270 270 269 269 269 269 269 269 269 269 269 269 269 270 270 270 270 270 270 270 271 271 271 271 271 272 272 273 273 273 273 274 274 274 274 274 274 274 274 274 273 273 273 273 273 273 273 273 273 273 272 272
275 275 274 274 274 273 273 272 272 271 271 271 270 270 270 270 270 269 269 269 269 268 268 268 268 268 268 268 269 269 269 269 270 270 270 270 270 271 271 271 272 272 272 273 273 273 273 273 273 273 273 273 273 273 273 273 273 272 273 273 273 273 273
275 275 275 274 274 274 273 273 273 272 272 272 272 271 271 271 271 271 270 270 270 269 269 269 268 268 268 268 268 268 268 268 269 269 269 270 270 270 270 270 271 271 271 272 272 272 272 272 272 272 272 272 272 272 272 272 272 272 272 272 272 272 272
277 276 275 275 274 274 274 273 273 273 273 272 272 272 272 272 272 272 271 271 271 271 270 270 270 269 269 269 269 268 268 268 268 269 269 269 269 270 270 270 270 270 271 271 271 271 271 271 271 271 271 271 272 272 272 272 272 272 272 271 271 271 271
278 277 277 276 275 275 274 274 274 274 274 274 274 274 274 273 273 273 272 272 272 272 271 271 271 270 270 270 269 269 269 269 269 269 269 269 269 270 270 270 270 271 271 271 271 271 271 271 271 271 271 271 271 271 271 271 272 271 271 271 271 271 270
280 279 278 278 277 277 276 276 276 276 276 276 276 276 276 275 275 274 274 274 274 274 274 273 273 272 271 271 270 270 270 270 270 270 270 270 270 270 270 270 270 271 271 271 271 271 271 271 271 271 271 271 271 271 271 270 270 270 270 270 270 269 269
280 280 280 280 279 279 279 279 278 278 278 278 277 277 277 277 277 277 276 276 276 276 275 275 275 274 274 273 273 272 272 271 271 270 270 270 270 270 269 269 270 270 270 271 271 271 271 271 271 271 270 270 270 270 270 269 269 268 269 269 269 268 268
280 280 280 280 280 280 280 280 279 279 279 278 278 278 278 278 277 277 276 276 276 276 275 275 275 275 275 275 274 273 273 272 272 271 271 271 270 270 269 269 269 269 270 270 270 270 271 271 271 271 271 270 270 269 269 269 268 268 267 268 268 268 268
280 280 280 280 280 280 280 280 279 279 279 278 278 278 277 277 276 276 275 275 275 275 275 275 275 275 275 274 274 273 273 273 272 272 272 271 271 270 270 270 269 269 269 269 269 270 270 270 270 271 271 270 270 269 268 268 268 268 268 268 268 268 268
281 281 280 280 280 280 280 280 280 279 279 278 278 278 277 277 276 276 276 275 275 275 275 275 274 274 274 274 274 273 273 273 273 272 272 272 271 271 270 270 270 269 269 269 269 269 269 269 269 270 270 270 269 269 268 268 268 268 268 268 268 268 268
281 281 281 280 280 280 281 281 280 280 280 280 279 279 279 279 278 278 278 277 277 276 276 276 276 275 275 275 275 275 275 274 274 274 274 273 273 272 271 271 270 270 269 269 268 268 268 268 268 268 268 269 269 269 269 269 268 268 268 267 267 267 266
281 281 281 281 281 282 282 282 282 282 281 281 281 281 281 281 280 280 279 279 278 278 277 277 277 277 277 277 277 277 277 276 276 276 275 275 274 274 273 273 272 271 271 270 269 269 268 268 268 268 267 268 268 268 269 269 268 267 267 266 265 265 265
282 282 282 283 283 283 283 283 283 283 282 282 282 282 281 281 280 280 279 279 279 279 278 278 278 277 277 277 277 277 277 277 277 277 276 276 276 275 275 274 274 273 273 272 271 271 270 269 269 268 268 268 268 268 268 268 268 267 267 266 265 264 264
285 285 285 285 284 284 283 283 283 283 283 283 283 282 281 281 280 280 280 280 280 279 279 279 278 278 277 277 277 277 276 276 276 276 276 276 276 276 276 275 275 274 274 273 273 272 271 271 270 269 269 269 268 268 268 268 268 268 267 266 265 264 264
287 286 286 286 285 284 284 284 284 284 283 283 282 282 281 281 281 281 281 280 280 279 279 278 278 277 277 277 276 276 276 276 276 275 275 275 275 275 275 275 275 275 274 274 273 273 272 271 271 270 270 269 269 269 269 268 268 267 267 266 265 265 264
287 287 287 286 286 285 285 284 284 284 283 283 282 282 282 282 282 282 281 281 280 280 279 279 278 278 278 277 277 276 276 276 276 275 275 275 274 274 275 275 275 274 274 274 273 273 272 271 271 270 270 270 269 269 268 268 267 267 266 266 266 265 264
288 287 287 287 286 286 285 285 285 284 284 284 283 283 283 283 283 283 282 281 281 281 280 280 279 279 278 278 278 277 277 276 276 276 275 275 275 274 274 274 274 274 274 274 273 272 272 271 270 270 270 269 269 268 268 267 267 266 266 266 265 265 264
289 288 287 287 286 286 286 286 285 285 284 284 284 284 284 284 283 283 282 282 281 281 281 280 280 279 279 278 278 278 277 277 276 276 275 275 275 274 274 274 274 274 274 273 273 272 272 271 270 270 269 269 268 268 267 267 266 266 266 265 265 264 264
289 288 287 287 287 286 286 285 285 284 284 284 284 284 284 283 283 282 282 282 282 281 281 281 280 280 280 279 279 278 278 277 277 276 276 275 274 274 274 273 273 273 273 273 272 272 272 271 270 270 269 268 268 267 267 266 266 265 265 265 264 264 263
288 288 288 287 286 286 285 284 284 283 283 283 284 283 283 283 283 282 282 282 282 282 282 281 281 281 280 280 280 279 279 278 277 276 276 275 275 274 274 273 273 272 272 272 272 271 271 271 270 270 269 268 268 267 266 266 265 265 264 264 264 263 262
288 287 287 287 286 286 285 284 284 284 284 284 284 284 284 283 283 283 283 283 283 283 282 282 281 281 281 280 280 280 279 279 278 277 277 276 275 275 275 274 273 273 272 271 271 270 270 270 270 269 269 268 268 267 266 265 265 264 264 263 263 263 262
289 288 287 286 286 286 286 285 285 285 285 285 285 285 284 284 284 284 283 283 283 283 283 282 282 281 281 281 280 280 279 279 278 278 277 277 276 275 275 275 274 273 272 272 271 270 270 269 269 269 268 268 267 266 266 265 264 264 264 263 263 262 262
289 288 288 287 287 287 287 286 286 285 286 286 285 285 285 284 284 284 284 284 284 283 283 282 282 282 282 281 281 280 280 279 279 278 278 277 277 276 275 275 274 273 273 272 271 271 270 270 269 269 268 267 267 266 265 265 264 264 263 263 262 262 261